METAR UND TAF INFORMATION
EHBK 221225Z AUTO 19006KT 140V260 9999 NCD 27/13 Q1008 NOSIG

 FLUGHAFENKARTE

 RUNWAY INFORMATION
Runway 03 Runway length 8202 ft Runway width 148 ft
Runway elevation 365 ft Runway displaced threshold 820 ft Runway heading 33
Runway 21 Runway length 8202 ft Runway width 148 ft
Runway elevation 370 ft Runway displaced threshold 820 ft Runway heading 213

 AIRPORT FREQUENCIES
Type APP Name BEEK APP Frequency 120.2 MHZ
Type ATIS Name ATIS Frequency 124.575 MHZ
Type GND Name BEEK GND Frequency 121.825 MHZ
Type TWR Name BEEK TWR Frequency 119.475 MHZ

 AIRPORT NEAR NAVIGATION AIDS
Type VOR-DME Name Maastricht Frequency 108600 KHZ
Type NDB Name Maastricht Frequency 373 KHZ